Time,TemperatureF,DewpointF,PressureIn,WindDirection,WindDirectionDegrees,WindSpeedMPH,WindSpeedGustMPH,Humidity,HourlyPrecipIn,Conditions,Clouds,dailyrainin,SoftwareType,DateUTC
2013-10-11 00:00:00,71.3,62.6,29.80,SSE,159,7.0,20.0,74,0.00,,,0.00,Wunderground v.1.15,2013-10-11 05:00:00,
2013-10-11 00:10:00,71.4,63.1,29.80,SSE,167,8.0,20.0,75,0.00,,,0.00,Wunderground v.1.15,2013-10-11 05:10:00,
2013-10-11 00:20:00,71.7,63.7,29.79,SSE,159,10.0,20.0,76,0.00,,,0.00,Wunderground v.1.15,2013-10-11 05:20:00,
2013-10-11 00:30:00,72.2,63.8,29.79,SSE,163,12.0,20.0,75,0.00,,,0.00,Wunderground v.1.15,2013-10-11 05:30:00,
2013-10-11 00:40:00,72.1,64.1,29.79,SSE,165,12.0,20.0,76,0.00,,,0.00,Wunderground v.1.15,2013-10-11 05:40:00,
2013-10-11 00:50:00,72.0,64.4,29.79,SSE,155,10.0,20.0,77,0.00,,,0.00,Wunderground v.1.15,2013-10-11 05:50:00,
2013-10-11 01:00:00,71.9,64.3,29.79,SSE,162,11.0,11.0,77,0.00,,,0.00,Wunderground v.1.15,2013-10-11 06:00:00,
2013-10-11 01:10:00,71.7,64.1,29.79,SSE,167,10.0,10.0,77,0.00,,,0.00,Wunderground v.1.15,2013-10-11 06:10:00,
2013-10-11 01:20:00,71.5,64.3,29.79,SSE,157,9.0,9.0,78,0.00,,,0.00,Wunderground v.1.15,2013-10-11 06:20:00,
2013-10-11 01:30:00,71.3,64.1,29.79,SSE,162,10.0,20.0,78,0.00,,,0.00,Wunderground v.1.15,2013-10-11 06:30:00,
2013-10-11 01:40:00,71.2,64.0,29.79,SSE,164,10.0,10.0,78,0.00,,,0.00,Wunderground v.1.15,2013-10-11 06:40:00,
2013-10-11 01:50:00,71.2,64.0,29.79,SSE,166,10.0,20.0,78,0.00,,,0.00,Wunderground v.1.15,2013-10-11 06:50:00,
2013-10-11 02:00:00,71.1,63.9,29.79,South,170,11.0,11.0,78,0.00,,,0.00,Wunderground v.1.15,2013-10-11 07:00:00,
2013-10-11 02:10:00,70.9,63.7,29.79,SSE,159,10.0,20.0,78,0.00,,,0.00,Wunderground v.1.15,2013-10-11 07:10:00,
2013-10-11 02:20:00,70.8,63.6,29.79,SSE,161,11.0,20.0,78,0.00,,,0.00,Wunderground v.1.15,2013-10-11 07:20:00,
2013-10-11 02:30:00,70.6,63.4,29.79,South,170,12.0,12.0,78,0.00,,,0.00,Wunderground v.1.15,2013-10-11 07:30:00,
2013-10-11 02:40:00,70.9,63.7,29.79,SSE,160,12.0,12.0,78,0.00,,,0.00,Wunderground v.1.15,2013-10-11 07:40:00,
2013-10-11 02:50:00,70.9,63.7,29.78,SSE,150,10.0,20.0,78,0.00,,,0.00,Wunderground v.1.15,2013-10-11 07:50:00,
2013-10-11 03:00:00,70.5,63.7,29.78,SSE,155,9.0,9.0,79,0.00,,,0.00,Wunderground v.1.15,2013-10-11 08:00:00,
2013-10-11 03:10:00,70.6,63.8,29.78,SSE,155,9.0,20.0,79,0.00,,,0.00,Wunderground v.1.15,2013-10-11 08:10:00,
2013-10-11 03:20:00,70.2,63.7,29.77,SSE,160,8.0,8.0,80,0.00,,,0.00,Wunderground v.1.15,2013-10-11 08:20:00,
2013-10-11 03:30:00,70.0,63.9,29.77,SSE,149,7.0,7.0,81,0.00,,,0.00,Wunderground v.1.15,2013-10-11 08:30:00,
2013-10-11 03:40:00,69.7,64.0,29.77,SE,144,5.0,5.0,82,0.00,,,0.00,Wunderground v.1.15,2013-10-11 08:40:00,
2013-10-11 03:50:00,69.7,64.0,29.76,SSE,148,4.0,20.0,82,0.00,,,0.00,Wunderground v.1.15,2013-10-11 08:50:00,
2013-10-11 04:00:00,69.4,64.0,29.76,SSE,150,6.0,20.0,83,0.00,,,0.00,Wunderground v.1.15,2013-10-11 09:00:00,
2013-10-11 04:10:00,69.1,63.7,29.76,SSE,150,5.0,20.0,83,0.00,,,0.00,Wunderground v.1.15,2013-10-11 09:10:00,
2013-10-11 04:20:00,68.8,63.8,29.76,SSE,150,5.0,20.0,84,0.00,,,0.00,Wunderground v.1.15,2013-10-11 09:20:00,
2013-10-11 04:30:00,68.7,64.0,29.76,SSE,150,4.0,4.0,85,0.00,,,0.00,Wunderground v.1.15,2013-10-11 09:30:00,
2013-10-11 04:40:00,68.6,63.9,29.77,SSE,150,0.0,20.0,85,0.00,,,0.00,Wunderground v.1.15,2013-10-11 09:40:00,
2013-10-11 04:50:00,68.3,63.6,29.76,SSE,150,0.0,20.0,85,0.00,,,0.00,Wunderground v.1.15,2013-10-11 09:50:00,
2013-10-11 05:00:00,68.1,63.8,29.76,SSE,150,0.0,20.0,86,0.00,,,0.00,Wunderground v.1.15,2013-10-11 10:00:00,
2013-10-11 05:10:00,67.8,63.8,29.76,SSE,150,0.0,20.0,87,0.00,,,0.00,Wunderground v.1.15,2013-10-11 10:10:00,
2013-10-11 05:20:00,67.8,64.1,29.76,SSE,150,0.0,20.0,88,0.00,,,0.00,Wunderground v.1.15,2013-10-11 10:20:00,
2013-10-11 05:30:00,67.8,64.1,29.77,SSE,150,1.0,1.0,88,0.00,,,0.00,Wunderground v.1.15,2013-10-11 10:30:00,
2013-10-11 05:40:00,67.8,64.4,29.77,SSE,150,0.0,20.0,89,0.00,,,0.00,Wunderground v.1.15,2013-10-11 10:40:00,
2013-10-11 05:50:00,67.7,64.3,29.77,SSE,150,0.0,20.0,89,0.00,,,0.00,Wunderground v.1.15,2013-10-11 10:50:00,
2013-10-11 06:00:00,67.7,64.3,29.76,SSE,150,1.0,1.0,89,0.00,,,0.00,Wunderground v.1.15,2013-10-11 11:00:00,
2013-10-11 06:10:00,67.8,64.8,29.77,SSE,150,0.0,20.0,90,0.00,,,0.00,Wunderground v.1.15,2013-10-11 11:10:00,
2013-10-11 06:20:00,67.8,64.8,29.77,SSE,150,0.0,20.0,90,0.00,,,0.00,Wunderground v.1.15,2013-10-11 11:20:00,
2013-10-11 06:30:00,67.8,64.8,29.76,SSE,150,2.0,2.0,90,0.00,,,0.00,Wunderground v.1.15,2013-10-11 11:30:00,
2013-10-11 06:40:00,67.7,64.7,29.77,SSE,150,0.0,20.0,90,0.00,,,0.00,Wunderground v.1.15,2013-10-11 11:40:00,
2013-10-11 06:50:00,67.7,65.0,29.81,South,184,2.0,20.0,91,0.00,,,0.00,Wunderground v.1.15,2013-10-11 11:50:00,
2013-10-11 07:00:00,68.0,65.0,29.81,SW,236,0.0,20.0,90,0.00,,,0.00,Wunderground v.1.15,2013-10-11 12:00:00,
2013-10-11 07:10:00,68.3,65.3,29.81,SW,236,0.0,20.0,90,0.00,,,0.00,Wunderground v.1.15,2013-10-11 12:10:00,
2013-10-11 07:20:00,68.6,65.2,29.81,WSW,238,0.0,20.0,89,0.00,,,0.00,Wunderground v.1.15,2013-10-11 12:20:00,
2013-10-11 07:30:00,68.6,65.2,29.83,WSW,238,0.0,20.0,89,0.00,,,0.00,Wunderground v.1.15,2013-10-11 12:30:00,
2013-10-11 07:40:00,68.7,65.3,29.82,WSW,238,0.0,20.0,89,0.00,,,0.00,Wunderground v.1.15,2013-10-11 12:40:00,
2013-10-11 07:50:00,68.7,65.3,29.83,WSW,238,0.0,20.0,89,0.00,,,0.00,Wunderground v.1.15,2013-10-11 12:50:00,
2013-10-11 08:00:00,68.8,65.4,29.83,WSW,238,0.0,20.0,89,0.00,,,0.00,Wunderground v.1.15,2013-10-11 13:00:00,
2013-10-11 08:10:00,68.9,65.5,29.82,WSW,238,0.0,20.0,89,0.00,,,0.00,Wunderground v.1.15,2013-10-11 13:10:00,
2013-10-11 08:20:00,69.0,65.6,29.84,SW,236,1.0,1.0,89,0.00,,,0.00,Wunderground v.1.15,2013-10-11 13:20:00,
2013-10-11 08:30:00,69.2,65.8,29.83,WSW,238,0.0,20.0,89,0.00,,,0.00,Wunderground v.1.15,2013-10-11 13:30:00,
2013-10-11 08:40:00,69.3,65.9,29.83,SW,236,0.0,20.0,89,0.00,,,0.00,Wunderground v.1.15,2013-10-11 13:40:00,
2013-10-11 08:50:00,69.6,65.9,29.83,SW,236,0.0,20.0,88,0.00,,,0.00,Wunderground v.1.15,2013-10-11 13:50:00,
2013-10-11 09:00:00,70.9,66.8,29.83,SW,232,0.0,20.0,87,0.00,,,0.00,Wunderground v.1.15,2013-10-11 14:00:00,
2013-10-11 09:10:00,72.4,67.3,29.83,SSW,202,0.0,20.0,84,0.00,,,0.00,Wunderground v.1.15,2013-10-11 14:10:00,
2013-10-11 09:20:00,73.1,67.3,29.83,South,170,1.0,20.0,82,0.00,,,0.00,Wunderground v.1.15,2013-10-11 14:20:00,
2013-10-11 09:30:00,74.4,68.2,29.83,South,169,4.0,20.0,81,0.00,,,0.00,Wunderground v.1.15,2013-10-11 14:30:00,
2013-10-11 09:40:00,75.2,68.2,29.83,South,171,5.0,20.0,79,0.00,,,0.00,Wunderground v.1.15,2013-10-11 14:40:00,
2013-10-11 09:50:00,76.4,68.3,29.84,South,173,4.0,20.0,76,0.00,,,0.00,Wunderground v.1.15,2013-10-11 14:50:00,
2013-10-11 10:00:00,77.6,68.7,29.84,South,182,5.0,20.0,74,0.00,,,0.00,Wunderground v.1.15,2013-10-11 15:00:00,
2013-10-11 10:10:00,78.6,68.8,29.84,South,178,7.0,20.0,72,0.00,,,0.00,Wunderground v.1.15,2013-10-11 15:10:00,
2013-10-11 10:20:00,79.1,68.9,29.84,SSW,200,6.0,6.0,71,0.00,,,0.00,Wunderground v.1.15,2013-10-11 15:20:00,
2013-10-11 10:30:00,80.1,69.4,29.84,South,181,5.0,20.0,70,0.00,,,0.00,Wunderground v.1.15,2013-10-11 15:30:00,
2013-10-11 10:40:00,80.4,69.3,29.84,SW,217,6.0,6.0,69,0.00,,,0.00,Wunderground v.1.15,2013-10-11 15:40:00,
2013-10-11 10:50:00,80.1,68.2,29.83,SSW,209,7.0,7.0,67,0.00,,,0.00,Wunderground v.1.15,2013-10-11 15:50:00,
2013-10-11 11:00:00,80.9,68.5,29.83,WSW,257,6.0,20.0,66,0.00,,,0.00,Wunderground v.1.15,2013-10-11 16:00:00,
2013-10-11 11:10:00,80.7,68.3,29.83,SW,223,7.0,7.0,66,0.00,,,0.00,Wunderground v.1.15,2013-10-11 16:10:00,
2013-10-11 11:20:00,81.1,68.2,29.83,SSW,202,4.0,20.0,65,0.00,,,0.00,Wunderground v.1.15,2013-10-11 16:20:00,
2013-10-11 11:30:00,80.7,67.8,29.83,SSW,210,5.0,5.0,65,0.00,,,0.00,Wunderground v.1.15,2013-10-11 16:30:00,
2013-10-11 11:40:00,80.9,68.0,29.83,SSW,200,4.0,4.0,65,0.00,,,0.00,Wunderground v.1.15,2013-10-11 16:40:00,
2013-10-11 11:50:00,81.2,67.9,29.83,SW,227,3.0,20.0,64,0.00,,,0.00,Wunderground v.1.15,2013-10-11 16:50:00,
2013-10-11 12:00:00,83.3,68.9,29.82,SW,227,5.0,20.0,62,0.00,,,0.00,Wunderground v.1.15,2013-10-11 17:00:00,
2013-10-11 12:10:00,83.9,68.0,29.82,South,171,4.0,20.0,59,0.00,,,0.00,Wunderground v.1.15,2013-10-11 17:10:00,
2013-10-11 12:20:00,83.4,68.1,29.82,SSW,202,3.0,3.0,60,0.00,,,0.00,Wunderground v.1.15,2013-10-11 17:20:00,
2013-10-11 12:30:00,83.5,67.2,29.81,SSW,207,3.0,20.0,58,0.00,,,0.00,Wunderground v.1.15,2013-10-11 17:30:00,
2013-10-11 12:40:00,84.6,67.7,29.81,SSW,197,4.0,20.0,57,0.00,,,0.00,Wunderground v.1.15,2013-10-11 17:40:00,
2013-10-11 12:50:00,85.3,67.3,29.80,SSW,211,6.0,6.0,55,0.00,,,0.00,Wunderground v.1.15,2013-10-11 17:50:00,
2013-10-11 13:00:00,84.8,67.4,29.80,South,190,4.0,20.0,56,0.00,,,0.00,Wunderground v.1.15,2013-10-11 18:00:00,
2013-10-11 13:10:00,84.8,66.8,29.80,SW,218,4.0,4.0,55,0.00,,,0.00,Wunderground v.1.15,2013-10-11 18:10:00,
2013-10-11 13:20:00,85.1,66.6,29.79,South,184,2.0,20.0,54,0.00,,,0.00,Wunderground v.1.15,2013-10-11 18:20:00,
2013-10-11 13:30:00,85.9,66.8,29.79,SSW,198,3.0,3.0,53,0.00,,,0.00,Wunderground v.1.15,2013-10-11 18:30:00,
2013-10-11 13:40:00,85.7,66.0,29.78,SSW,213,4.0,4.0,52,0.00,,,0.00,Wunderground v.1.15,2013-10-11 18:40:00,
2013-10-11 13:50:00,86.8,66.5,29.78,SSW,200,1.0,20.0,51,0.00,,,0.00,Wunderground v.1.15,2013-10-11 18:50:00,
2013-10-11 14:00:00,86.0,66.3,29.77,SW,224,4.0,20.0,52,0.00,,,0.00,Wunderground v.1.15,2013-10-11 19:00:00,
2013-10-11 14:10:00,85.7,66.0,29.77,South,190,2.0,20.0,52,0.00,,,0.00,Wunderground v.1.15,2013-10-11 19:10:00,
2013-10-11 14:20:00,85.4,65.8,29.77,SSW,199,4.0,20.0,52,0.00,,,0.00,Wunderground v.1.15,2013-10-11 19:20:00,
2013-10-11 14:30:00,85.6,66.5,29.76,SW,234,2.0,2.0,53,0.00,,,0.00,Wunderground v.1.15,2013-10-11 19:30:00,
2013-10-11 14:40:00,85.8,66.1,29.76,South,191,2.0,20.0,52,0.00,,,0.00,Wunderground v.1.15,2013-10-11 19:40:00,
2013-10-11 14:50:00,85.5,66.4,29.75,SSW,211,3.0,3.0,53,0.00,,,0.00,Wunderground v.1.15,2013-10-11 19:50:00,
2013-10-11 15:00:00,85.5,67.0,29.75,SSW,196,5.0,20.0,54,0.00,,,0.00,Wunderground v.1.15,2013-10-11 20:00:00,
2013-10-11 15:10:00,85.6,66.5,29.75,SSW,194,2.0,2.0,53,0.00,,,0.00,Wunderground v.1.15,2013-10-11 20:10:00,
2013-10-11 15:20:00,86.1,66.4,29.75,SW,223,1.0,20.0,52,0.00,,,0.00,Wunderground v.1.15,2013-10-11 20:20:00,
2013-10-11 15:30:00,86.3,66.6,29.74,SW,225,3.0,3.0,52,0.00,,,0.00,Wunderground v.1.15,2013-10-11 20:30:00,
2013-10-11 15:40:00,86.8,67.1,29.75,SSE,167,5.0,20.0,52,0.00,,,0.00,Wunderground v.1.15,2013-10-11 20:40:00,
2013-10-11 15:50:00,85.8,67.2,29.75,South,182,7.0,7.0,54,0.00,,,0.00,Wunderground v.1.15,2013-10-11 20:50:00,
2013-10-11 16:00:00,85.9,67.3,29.75,South,173,8.0,20.0,54,0.00,,,0.00,Wunderground v.1.15,2013-10-11 21:00:00,
2013-10-11 16:10:00,85.9,67.3,29.74,South,184,8.0,8.0,54,0.00,,,0.00,Wunderground v.1.15,2013-10-11 21:10:00,
2013-10-11 16:20:00,86.8,67.1,29.74,South,176,7.0,20.0,52,0.00,,,0.00,Wunderground v.1.15,2013-10-11 21:20:00,
2013-10-11 16:30:00,87.0,67.2,29.74,South,173,7.0,20.0,52,0.00,,,0.00,Wunderground v.1.15,2013-10-11 21:30:00,
2013-10-11 16:40:00,86.9,67.2,29.74,SSW,196,7.0,20.0,52,0.00,,,0.00,Wunderground v.1.15,2013-10-11 21:40:00,
2013-10-11 16:50:00,86.8,67.1,29.74,South,182,8.0,8.0,52,0.00,,,0.00,Wunderground v.1.15,2013-10-11 21:50:00,
2013-10-11 17:00:00,86.6,67.4,29.74,SSW,194,8.0,8.0,53,0.00,,,0.00,Wunderground v.1.15,2013-10-11 22:00:00,
2013-10-11 17:10:00,86.3,67.7,29.74,SSE,165,7.0,20.0,54,0.00,,,0.00,Wunderground v.1.15,2013-10-11 22:10:00,
2013-10-11 17:20:00,85.9,67.3,29.74,South,169,11.0,20.0,54,0.00,,,0.00,Wunderground v.1.15,2013-10-11 22:20:00,
2013-10-11 17:30:00,85.9,67.3,29.74,SSE,161,11.0,11.0,54,0.00,,,0.00,Wunderground v.1.15,2013-10-11 22:30:00,
2013-10-11 17:40:00,85.8,67.2,29.74,South,190,9.0,9.0,54,0.00,,,0.00,Wunderground v.1.15,2013-10-11 22:40:00,
2013-10-11 17:50:00,85.5,67.0,29.74,South,175,8.0,8.0,54,0.00,,,0.00,Wunderground v.1.15,2013-10-11 22:50:00,
2013-10-11 18:00:00,85.3,67.3,29.74,South,181,8.0,20.0,55,0.00,,,0.00,Wunderground v.1.15,2013-10-11 23:00:00,
2013-10-11 18:10:00,84.9,66.9,29.74,South,169,10.0,10.0,55,0.00,,,0.00,Wunderground v.1.15,2013-10-11 23:10:00,
2013-10-11 18:20:00,84.8,66.8,29.74,South,170,8.0,8.0,55,0.00,,,0.00,Wunderground v.1.15,2013-10-11 23:20:00,
2013-10-11 18:30:00,84.4,67.5,29.74,South,171,9.0,9.0,57,0.00,,,0.00,Wunderground v.1.15,2013-10-11 23:30:00,
2013-10-11 18:40:00,84.0,67.6,29.74,South,178,10.0,10.0,58,0.00,,,0.00,Wunderground v.1.15,2013-10-11 23:40:00,
2013-10-11 18:50:00,83.6,67.3,29.75,SSE,168,5.0,5.0,58,0.00,,,0.00,Wunderground v.1.15,2013-10-11 23:50:00,
2013-10-11 19:00:00,83.2,67.4,29.75,South,170,7.0,7.0,59,0.00,,,0.00,Wunderground v.1.15,2013-10-12 00:00:00,
2013-10-11 19:10:00,82.7,67.4,29.75,South,169,4.0,4.0,60,0.00,,,0.00,Wunderground v.1.15,2013-10-12 00:10:00,
2013-10-11 19:20:00,82.0,67.2,29.75,South,169,0.0,20.0,61,0.00,,,0.00,Wunderground v.1.15,2013-10-12 00:20:00,
2013-10-11 19:30:00,81.5,67.2,29.75,South,169,0.0,20.0,62,0.00,,,0.00,Wunderground v.1.15,2013-10-12 00:30:00,
2013-10-11 19:40:00,80.9,67.1,29.75,South,169,0.0,20.0,63,0.00,,,0.00,Wunderground v.1.15,2013-10-12 00:40:00,
2013-10-11 19:50:00,80.3,67.0,29.76,South,169,0.0,20.0,64,0.00,,,0.00,Wunderground v.1.15,2013-10-12 00:50:00,
2013-10-11 20:00:00,79.7,66.9,29.76,South,169,0.0,20.0,65,0.00,,,0.00,Wunderground v.1.15,2013-10-12 01:00:00,
2013-10-11 20:10:00,79.2,66.9,29.76,South,169,0.0,20.0,66,0.00,,,0.00,Wunderground v.1.15,2013-10-12 01:10:00,
2013-10-11 20:20:00,78.9,66.6,29.77,South,169,0.0,20.0,66,0.00,,,0.00,Wunderground v.1.15,2013-10-12 01:20:00,
2013-10-11 20:30:00,78.7,66.8,29.77,South,169,0.0,20.0,67,0.00,,,0.00,Wunderground v.1.15,2013-10-12 01:30:00,
2013-10-11 20:40:00,78.4,66.5,29.77,South,169,0.0,20.0,67,0.00,,,0.00,Wunderground v.1.15,2013-10-12 01:40:00,
2013-10-11 20:50:00,78.1,66.7,29.77,South,169,0.0,20.0,68,0.00,,,0.00,Wunderground v.1.15,2013-10-12 01:50:00,
2013-10-11 21:00:00,77.7,66.7,29.78,South,169,0.0,20.0,69,0.00,,,0.00,Wunderground v.1.15,2013-10-12 02:00:00,
2013-10-11 21:10:00,77.4,66.4,29.78,South,169,0.0,20.0,69,0.00,,,0.00,Wunderground v.1.15,2013-10-12 02:10:00,
2013-10-11 21:20:00,77.1,66.6,29.78,South,169,0.0,20.0,70,0.00,,,0.00,Wunderground v.1.15,2013-10-12 02:20:00,
2013-10-11 21:30:00,76.9,66.8,29.78,South,169,0.0,20.0,71,0.00,,,0.00,Wunderground v.1.15,2013-10-12 02:30:00,
2013-10-11 21:40:00,76.8,66.7,29.78,South,169,0.0,20.0,71,0.00,,,0.00,Wunderground v.1.15,2013-10-12 02:40:00,
2013-10-11 21:50:00,76.5,66.8,29.79,South,169,0.0,20.0,72,0.00,,,0.00,Wunderground v.1.15,2013-10-12 02:50:00,
2013-10-11 22:10:00,75.8,66.5,29.79,South,169,0.0,20.0,73,0.00,,,0.00,Wunderground v.1.15,2013-10-12 03:10:00,
2013-10-11 22:20:00,75.5,66.6,29.79,South,169,0.0,20.0,74,0.00,,,0.00,Wunderground v.1.15,2013-10-12 03:20:00,
2013-10-11 22:30:00,75.3,66.8,29.79,South,169,0.0,20.0,75,0.00,,,0.00,Wunderground v.1.15,2013-10-12 03:30:00,
2013-10-11 22:40:00,75.3,66.8,29.80,South,169,0.0,20.0,75,0.00,,,0.00,Wunderground v.1.15,2013-10-12 03:40:00,
2013-10-11 22:50:00,75.6,66.7,29.80,South,169,0.0,20.0,74,0.00,,,0.00,Wunderground v.1.15,2013-10-12 03:50:00,
2013-10-11 23:00:00,75.8,66.9,29.80,South,169,0.0,20.0,74,0.00,,,0.00,Wunderground v.1.15,2013-10-12 04:00:00,
2013-10-11 23:10:00,76.2,67.3,29.80,South,169,2.0,20.0,74,0.00,,,0.00,Wunderground v.1.15,2013-10-12 04:10:00,
2013-10-11 23:20:00,76.5,67.2,29.81,South,170,1.0,1.0,73,0.00,,,0.00,Wunderground v.1.15,2013-10-12 04:20:00,
2013-10-11 23:30:00,76.4,67.5,29.81,South,170,0.0,20.0,74,0.00,,,0.00,Wunderground v.1.15,2013-10-12 04:30:00,
2013-10-11 23:40:00,76.2,67.3,29.81,South,170,0.0,20.0,74,0.00,,,0.00,Wunderground v.1.15,2013-10-12 04:40:00,
2013-10-11 23:50:00,75.8,67.3,29.81,South,170,0.0,20.0,75,0.00,,,0.00,Wunderground v.1.15,2013-10-12 04:50:00,